Location: Krasnoyarskiy Pitomnik
(51.1333°N, 71.6167°E)
Time: 13:59:38
(UTC+00:00)

SL-8 Rocket - Pass Details

Date: 22 October 2021
Orbit: 956 x 991 km, 82.9° (Epoch: 26 November)

Event Time Altitude Azimuth Distance (km) Brightness Sun altitude
Rises 23:44:33 0° 346° (NNW) 3,686 7.0 -20.3°
Reaches altitude 10° 23:47:10 10° 340° (NNW) 2,729 6.2 -19.9°
Maximum altitude 23:53:03 45° 270° (W) 1,288 4.2 -19.0°
Drops below altitude 10° 23:58:51 10° 200° (SSW) 2,690 6.1 -18.1°
Sets 00:01:25 0° 194° (SSW) 3,629 6.8 -17.7°
